This is the latest recevied weather packets stored in our database for station/object WA6ODQ-13. If no packets are shown the sender has not sent any weather packets the latest 10 day(s).
| Time | Temp. | Humidity | Pressure | Rain* | Wind** | Luminosity | Snow |
|---|---|---|---|---|---|---|---|
| 1778089514 | 21.11° C | 70% | 1019.2 hPa | 0 mm | - | 414 W/m² | - |
| 1778089210 | 20.56° C | 71% | 1019.1 hPa | 0 mm | - | 391 W/m² | - |
| 1778088908 | 20° C | 72% | 1019.1 hPa | 0 mm | - | 416 W/m² | - |
| 1778088604 | 20° C | 74% | 1018.8 hPa | 0 mm | - | 426 W/m² | - |
| 1778088302 | 19.44° C | 74% | 1019 hPa | 0 mm | - | 410 W/m² | - |
| 1778087998 | 18.89° C | 75% | 1018.8 hPa | 0 mm | - | 344 W/m² | - |
| 1778087695 | 19.44° C | 75% | 1018.7 hPa | 0 mm | - | 353 W/m² | - |
| 1778087393 | 19.44° C | 75% | 1018.8 hPa | 0 mm | - | 324 W/m² | - |
| 1778087089 | 18.89° C | 75% | 1018.8 hPa | 0 mm | - | 323 W/m² | - |
| 1778086788 | 18.89° C | 76% | 1018.9 hPa | 0 mm | - | 298 W/m² | - |
| 1778086486 | 18.33° C | 77% | 1018.8 hPa | 0 mm | - | 284 W/m² | - |
| 1778086182 | 18.33° C | 76% | 1018.9 hPa | 0 mm | - | 276 W/m² | - |
| 1778085879 | 17.78° C | 77% | 1018.8 hPa | 0 mm | - | 261 W/m² | - |
| 1778085577 | 17.78° C | 78% | 1018.9 hPa | 0 mm | - | 256 W/m² | - |
| 1778085271 | 17.78° C | 79% | 1018.7 hPa | 0 mm | - | 245 W/m² | - |
| 1778084966 | 17.22° C | 79% | 1018.7 hPa | 0 mm | - | 227 W/m² | - |
| 1778084664 | 16.67° C | 80% | 1018.8 hPa | 0 mm | - | 203 W/m² | - |
| 1778084356 | 16.67° C | 81% | 1018.6 hPa | 0 mm | - | 196 W/m² | - |
| 1778084054 | 16.67° C | 80% | 1018.7 hPa | 0 mm | - | 184 W/m² | - |
| 1778083751 | 16.67° C | 80% | 1018.7 hPa | 0 mm | - | 177 W/m² | - |
| 1778083448 | 16.67° C | 81% | 1018.8 hPa | 0 mm | - | 165 W/m² | - |
| 1778083146 | 16.11° C | 81% | 1018.7 hPa | 0 mm | - | 150 W/m² | - |
| 1778082843 | 16.11° C | 82% | 1018.9 hPa | 0 mm | - | 143 W/m² | - |
| 1778081725 | 15.56° C | 82% | 1018.8 hPa | 0 mm | - | 126 W/m² | - |
| 1778081422 | 15.56° C | 83% | 1018.8 hPa | 0 mm | - | 119 W/m² | - |
* Rain latest hour (hover to see other rain measurements)
** Current wind speed in m/s (hover to see current wind gust speed)